sat.trackr.live / text

‹ back to catalog

STARLINK-35229

NORAD 65600 · 2025-207J

PAYLOAD ACTIVE UNKNOWN

§ Identity

Operator
Country
US
Launch date
2025-09-13
Launch site
AFWTR
Launch vehicle
Mass (kg)
RCS (m²)

Purposes: comms

External: N2YO · Heavens-Above · Gunter

§ Orbital elements

Epoch: 2026-09-20T22:00:03.000096Z

Period
93.91 min
Inclination
97.2853°
Eccentricity
0.0001947
Mean motion
15.33445071 rev/d
Perigee alt
464.2 km
Apogee alt
466.9 km
Semi-major
6,843.7 km
B*
-1.3409e-4
RAAN
326.4370°
Arg perigee
89.4860°
Mean anomaly
191.0429°
Rev number
580

§ Raw data

STARLINK-352291 65600U 25207J   26263.91670139 -.00004402  00000+0 -13409-3 0  99992 65600  97.2853 326.4370 0001947  89.4860 191.0429 15.33445071  5806

JSON: /api/v1/satellites/65600 · /tle

For live sub-satellite position, see the globe view (requires WebGL).

§ Visibility from observer

Set your observer location to see the next 7 days of passes ≥ 10°. The values pass through the URL so the page stays shareable.

No JS? Fill the form by hand. The geolocation button needs JavaScript.